| time (UTC) | temp F | wind direction | speed MPH | gust MPH | rain 1hr in | rain 24hr in | rain mn in | humidity % | barometer mb |
| 20260906042004 | 62 | 178 | 5.0 | 12.0 | 0.00 | 0.00 | 0.00 | 87 | 1016.2 |
| 20260906040504 | 62 | 207 | 5.0 | 14.0 | 0.00 | 0.00 | 0.00 | 87 | 1016.2 |
| 20260906040005 | 62 | 217 | 4.0 | 11.0 | 0.00 | 0.00 | 0.00 | 87 | 1016.2 |
| 20260906035504 | 62 | 198 | 4.0 | 11.0 | 0.00 | 0.00 | 0.00 | 88 | 1016.3 |
| 20260906035005 | 61 | 188 | 3.0 | 9.0 | 0.00 | 0.00 | 0.00 | 88 | 1016.4 |
| 20260906034504 | 61 | 182 | 4.0 | 11.0 | 0.00 | 0.00 | 0.00 | 88 | 1016.4 |
| 20260906034005 | 61 | 173 | 4.0 | 11.0 | 0.00 | 0.00 | 0.00 | 88 | 1016.4 |
| 20260906033504 | 61 | 174 | 4.0 | 11.0 | 0.00 | 0.00 | 0.00 | 88 | 1016.6 |
| 20260906033005 | 61 | 182 | 4.0 | 11.0 | 0.00 | 0.00 | 0.00 | 88 | 1016.6 |
| 20260906032505 | 61 | 193 | 4.0 | 11.0 | 0.00 | 0.00 | 0.00 | 88 | 1016.6 |
| 20260906032005 | 61 | 210 | 4.0 | 9.0 | 0.00 | 0.00 | 0.00 | 89 | 1016.7 |
| 20260906031504 | 61 | 226 | 4.0 | 9.0 | 0.00 | 0.00 | 0.00 | 89 | 1016.6 |
| 20260906031005 | 61 | 229 | 4.0 | 11.0 | 0.00 | 0.00 | 0.00 | 89 | 1016.8 |
| 20260906030504 | 62 | 216 | 4.0 | 11.0 | 0.00 | 0.00 | 0.00 | 89 | 1016.8 |
| 20260906025005 | 62 | 218 | 4.0 | 10.0 | 0.00 | 0.00 | 0.00 | 91 | 1017.0 |
| 20260906024504 | 62 | 173 | 4.0 | 12.0 | 0.00 | 0.00 | 0.00 | 91 | 1017.1 |
| 20260906024005 | 62 | 169 | 4.0 | 12.0 | 0.00 | 0.00 | 0.00 | 91 | 1017.0 |
| 20260906023504 | 62 | 175 | 3.0 | 10.0 | 0.00 | 0.00 | 0.00 | 91 | 1017.2 |
| 20260906023006 | 62 | 176 | 4.0 | 11.0 | 0.00 | 0.00 | 0.00 | 92 | 1017.2 |
| 20260906022504 | 62 | 188 | 5.0 | 11.0 | 0.00 | 0.00 | 0.00 | 91 | 1017.2 |
| 20260906022006 | 62 | 205 | 5.0 | 11.0 | 0.00 | 0.00 | 0.00 | 91 | 1017.3 |
| 20260906021005 | 62 | 211 | 4.0 | 13.0 | 0.00 | 0.00 | 0.00 | 92 | 1017.3 |
| 20260906020504 | 62 | 203 | 3.0 | 10.0 | 0.00 | 0.00 | 0.00 | 92 | 1017.4 |
| 20260906015005 | 62 | 183 | 2.0 | 6.0 | 0.00 | 0.00 | 0.00 | 92 | 1017.6 |
| 20260906014504 | 62 | 189 | 3.0 | 6.0 | 0.00 | 0.00 | 0.00 | 92 | 1017.7 |
| 20260906014005 | 62 | 187 | 2.0 | 5.0 | 0.00 | 0.00 | 0.00 | 92 | 1017.6 |
| 20260906013504 | 62 | 177 | 2.0 | 7.0 | 0.00 | 0.00 | 0.00 | 91 | 1017.7 |
| 20260906013005 | 62 | 177 | 3.0 | 8.0 | 0.00 | 0.00 | 0.00 | 91 | 1017.7 |
| 20260906012004 | 62 | 162 | 4.0 | 11.0 | 0.00 | 0.00 | 0.00 | 91 | 1017.6 |
| 20260906011504 | 62 | 164 | 4.0 | 11.0 | 0.00 | 0.00 | 0.00 | 90 | 1017.7 |
| 20260906011004 | 62 | 162 | 4.0 | 11.0 | 0.00 | 0.00 | 0.00 | 90 | 1017.8 |
| 20260906010504 | 63 | 162 | 4.0 | 11.0 | 0.00 | 0.00 | 0.00 | 90 | 1017.8 |
| 20260906010005 | 62 | 159 | 4.0 | 10.0 | 0.00 | 0.00 | 0.00 | 90 | 1017.8 |
| 20260906005504 | 63 | 162 | 4.0 | 11.0 | 0.00 | 0.00 | 0.00 | 90 | 1017.8 |
| 20260906005005 | 62 | 167 | 4.0 | 11.0 | 0.00 | 0.00 | 0.00 | 90 | 1018.0 |
| 20260906004504 | 62 | 168 | 3.0 | 9.0 | 0.00 | 0.00 | 0.00 | 90 | 1018.1 |
| 20260906003504 | 62 | 172 | 3.0 | 9.0 | 0.00 | 0.00 | 0.00 | 90 | 1018.4 |
| 20260906002504 | 62 | 160 | 3.0 | 8.0 | 0.00 | 0.00 | 0.00 | 90 | 1018.6 |
| 20260906001503 | 62 | 161 | 4.0 | 9.0 | 0.00 | 0.00 | 0.00 | 90 | 1018.7 |
| 20260906000503 | 62 | 142 | 3.0 | 8.0 | 0.00 | 0.00 | 0.00 | 91 | 1018.9 |
| 20260905235503 | 62 | 138 | 3.0 | 9.0 | 0.00 | 0.00 | 0.00 | 90 | 1019.3 |
| 20260905235005 | 62 | 138 | 3.0 | 8.0 | 0.00 | 0.00 | 0.00 | 91 | 1019.5 |
| 20260905234504 | 62 | 137 | 3.0 | 8.0 | 0.00 | 0.00 | 0.00 | 91 | 1019.4 |
| 20260905234004 | 62 | 144 | 3.0 | 10.0 | 0.00 | 0.00 | 0.00 | 91 | 1019.5 |
| 20260905233504 | 62 | 150 | 3.0 | 10.0 | 0.00 | 0.00 | 0.00 | 91 | 1019.4 |
| 20260905233005 | 62 | 149 | 3.0 | 9.0 | 0.00 | 0.00 | 0.00 | 91 | 1019.3 |
| 20260905232504 | 62 | 156 | 4.0 | 9.0 | 0.00 | 0.00 | 0.00 | 91 | 1019.3 |
| 20260905232005 | 62 | 165 | 4.0 | 12.0 | 0.00 | 0.00 | 0.00 | 91 | 1019.4 |
| 20260905231504 | 61 | 161 | 4.0 | 12.0 | 0.00 | 0.00 | 0.00 | 91 | 1019.4 |
| 20260905231004 | 61 | 147 | 3.0 | 9.0 | 0.00 | 0.00 | 0.00 | 91 | 1019.4 |
| 20260905225504 | 61 | 157 | 4.0 | 12.0 | 0.00 | 0.00 | 0.00 | 90 | 1019.5 |
| 20260905225005 | 61 | 159 | 4.0 | 12.0 | 0.00 | 0.00 | 0.00 | 90 | 1019.6 |
| 20260905224005 | 61 | 160 | 3.0 | 9.0 | 0.00 | 0.00 | 0.00 | 90 | 1019.6 |
| 20260905222503 | 61 | 164 | 4.0 | 9.0 | 0.00 | 0.00 | 0.00 | 89 | 1019.8 |
| 20260905222004 | 61 | 165 | 4.0 | 10.0 | 0.00 | 0.00 | 0.00 | 89 | 1020.0 |
| 20260905221503 | 61 | 163 | 4.0 | 10.0 | 0.00 | 0.00 | 0.00 | 89 | 1020.2 |
| 20260905221005 | 61 | 160 | 3.0 | 9.0 | 0.00 | 0.00 | 0.00 | 89 | 1020.2 |
| 20260905220503 | 61 | 159 | 3.0 | 9.0 | 0.00 | 0.00 | 0.00 | 89 | 1020.2 |
| 20260905220004 | 61 | 161 | 3.0 | 9.0 | 0.00 | 0.00 | 0.00 | 89 | 1020.3 |
| 20260905215506 | 61 | 165 | 3.0 | 9.0 | 0.00 | 0.00 | 0.00 | 89 | 1020.3 |
| 20260905214505 | 61 | 153 | 3.0 | 9.0 | 0.00 | 0.00 | 0.00 | 89 | 1020.4 |
| 20260905214006 | 61 | 159 | 3.0 | 9.0 | 0.00 | 0.00 | 0.00 | 89 | 1020.4 |
| 20260905213506 | 61 | 163 | 4.0 | 9.0 | 0.00 | 0.00 | 0.00 | 88 | 1020.4 |
| 20260905213006 | 61 | 163 | 4.0 | 9.0 | 0.00 | 0.00 | 0.00 | 88 | 1020.5 |
| 20260905212505 | 61 | 161 | 4.0 | 9.0 | 0.00 | 0.00 | 0.00 | 88 | 1020.4 |
| 20260905212007 | 61 | 162 | 4.0 | 9.0 | 0.00 | 0.00 | 0.00 | 88 | 1020.5 |
| 20260905211506 | 61 | 164 | 4.0 | 10.0 | 0.00 | 0.00 | 0.00 | 87 | 1020.4 |
| 20260905210506 | 61 | 169 | 4.0 | 12.0 | 0.00 | 0.00 | 0.00 | 87 | 1020.4 |
| 20260905210007 | 60 | 169 | 4.0 | 10.0 | 0.00 | 0.00 | 0.00 | 87 | 1020.3 |
| 20260905205505 | 60 | 164 | 3.0 | 9.0 | 0.00 | 0.00 | 0.00 | 87 | 1020.3 |
| 20260905205006 | 60 | 165 | 3.0 | 9.0 | 0.00 | 0.00 | 0.00 | 87 | 1020.6 |
| 20260905204505 | 60 | 170 | 3.0 | 9.0 | 0.00 | 0.00 | 0.00 | 86 | 1020.5 |
| 20260905203505 | 60 | 168 | 3.0 | 11.0 | 0.00 | 0.00 | 0.00 | 86 | 1020.5 |
| 20260905203006 | 60 | 166 | 3.0 | 11.0 | 0.00 | 0.00 | 0.00 | 86 | 1020.5 |
| 20260905202506 | 60 | 168 | 4.0 | 11.0 | 0.00 | 0.00 | 0.00 | 86 | 1020.5 |
| 20260905202007 | 60 | 165 | 4.0 | 8.0 | 0.00 | 0.00 | 0.00 | 86 | 1020.5 |
| 20260905201505 | 60 | 165 | 4.0 | 9.0 | 0.00 | 0.00 | 0.00 | 86 | 1020.4 |
| 20260905201006 | 60 | 169 | 3.0 | 9.0 | 0.00 | 0.00 | 0.00 | 85 | 1020.5 |
| 20260905200506 | 60 | 172 | 3.0 | 8.0 | 0.00 | 0.00 | 0.00 | 86 | 1020.6 |
| 20260905200007 | 60 | 163 | 3.0 | 8.0 | 0.00 | 0.00 | 0.00 | 85 | 1020.7 |
| 20260905195505 | 60 | 153 | 3.0 | 8.0 | 0.00 | 0.00 | 0.00 | 85 | 1020.6 |
| 20260905194006 | 60 | 165 | 3.0 | 7.0 | 0.00 | 0.00 | 0.00 | 85 | 1020.7 |
| 20260905193505 | 60 | 163 | 4.0 | 11.0 | 0.00 | 0.00 | 0.00 | 85 | 1020.6 |
| 20260905193006 | 60 | 163 | 4.0 | 11.0 | 0.00 | 0.00 | 0.00 | 85 | 1020.6 |
| 20260905192505 | 60 | 162 | 4.0 | 9.0 | 0.00 | 0.00 | 0.00 | 84 | 1020.7 |
| 20260905192006 | 60 | 161 | 3.0 | 9.0 | 0.00 | 0.00 | 0.00 | 84 | 1020.6 |
| 20260905191505 | 60 | 162 | 3.0 | 9.0 | 0.00 | 0.00 | 0.00 | 84 | 1020.6 |
| 20260905191007 | 60 | 159 | 4.0 | 9.0 | 0.00 | 0.00 | 0.00 | 84 | 1020.7 |
| 20260905190505 | 60 | 158 | 3.0 | 9.0 | 0.00 | 0.00 | 0.00 | 83 | 1020.6 |
| 20260905190006 | 60 | 160 | 3.0 | 9.0 | 0.00 | 0.00 | 0.00 | 83 | 1020.7 |
| 20260905185006 | 60 | 158 | 3.0 | 11.0 | 0.00 | 0.00 | 0.00 | 82 | 1020.7 |
| 20260905184505 | 60 | 157 | 3.0 | 9.0 | 0.00 | 0.00 | 0.00 | 82 | 1020.8 |
| 20260905184006 | 60 | 150 | 3.0 | 9.0 | 0.00 | 0.00 | 0.00 | 82 | 1020.8 |
| 20260905183007 | 60 | 157 | 4.0 | 9.0 | 0.00 | 0.00 | 0.00 | 80 | 1020.8 |
| 20260905182006 | 61 | 147 | 3.0 | 9.0 | 0.00 | 0.00 | 0.00 | 79 | 1020.8 |
| 20260905181505 | 61 | 150 | 3.0 | 7.0 | 0.00 | 0.00 | 0.00 | 78 | 1020.9 |
| 20260905181006 | 61 | 153 | 3.0 | 7.0 | 0.00 | 0.00 | 0.00 | 78 | 1020.8 |
| 20260905180505 | 61 | 165 | 2.0 | 6.0 | 0.00 | 0.00 | 0.00 | 77 | 1020.9 |
| 20260905180006 | 61 | 157 | 2.0 | 7.0 | 0.00 | 0.00 | 0.00 | 77 | 1021.0 |
| 20260905175505 | 61 | 182 | 3.0 | 8.0 | 0.00 | 0.00 | 0.00 | 76 | 1021.1 |
| 20260905175007 | 61 | 211 | 3.0 | 8.0 | 0.00 | 0.00 | 0.00 | 76 | 1021.2 |
| 20260905174505 | 61 | 194 | 3.0 | 7.0 | 0.00 | 0.00 | 0.00 | 75 | 1021.1 |
| 20260905174006 | 61 | 189 | 3.0 | 6.0 | 0.00 | 0.00 | 0.00 | 75 | 1021.1 |
| 20260905173007 | 62 | 190 | 3.0 | 11.0 | 0.00 | 0.00 | 0.00 | 75 | 1021.2 |
| 20260905172505 | 62 | 212 | 4.0 | 11.0 | 0.00 | 0.00 | 0.00 | 75 | 1021.1 |
| 20260905172006 | 62 | 198 | 4.0 | 11.0 | 0.00 | 0.00 | 0.00 | 74 | 1021.1 |
| 20260905171505 | 62 | 183 | 4.0 | 10.0 | 0.00 | 0.00 | 0.00 | 74 | 1021.1 |
| 20260905171006 | 62 | 199 | 3.0 | 10.0 | 0.00 | 0.00 | 0.00 | 74 | 1021.1 |
| 20260905170505 | 62 | 219 | 4.0 | 10.0 | 0.00 | 0.00 | 0.00 | 74 | 1021.1 |
| 20260905170006 | 62 | 218 | 4.0 | 10.0 | 0.00 | 0.00 | 0.00 | 73 | 1021.2 |
| 20260905165505 | 62 | 206 | 4.0 | 14.0 | 0.00 | 0.00 | 0.00 | 73 | 1021.2 |
| 20260905165005 | 62 | 192 | 5.0 | 14.0 | 0.00 | 0.00 | 0.00 | 72 | 1021.2 |
| 20260905164505 | 62 | 186 | 5.0 | 13.0 | 0.00 | 0.00 | 0.00 | 71 | 1021.2 |
| 20260905164005 | 62 | 190 | 4.0 | 11.0 | 0.00 | 0.00 | 0.00 | 70 | 1021.3 |
| 20260905163006 | 62 | 196 | 3.0 | 11.0 | 0.00 | 0.00 | 0.00 | 70 | 1021.4 |
| 20260905162505 | 63 | 221 | 3.0 | 11.0 | 0.00 | 0.00 | 0.00 | 70 | 1021.5 |
| 20260905162007 | 63 | 221 | 4.0 | 9.0 | 0.00 | 0.00 | 0.00 | 71 | 1021.5 |
| 20260905161505 | 63 | 222 | 4.0 | 10.0 | 0.00 | 0.00 | 0.00 | 71 | 1021.5 |
| 20260905161006 | 63 | 229 | 5.0 | 13.0 | 0.00 | 0.00 | 0.00 | 69 | 1021.6 |
| 20260905160505 | 63 | 233 | 5.0 | 13.0 | 0.00 | 0.00 | 0.00 | 69 | 1021.6 |
| 20260905160006 | 63 | 227 | 4.0 | 12.0 | 0.00 | 0.00 | 0.00 | 68 | 1021.7 |
| 20260905155505 | 63 | 223 | 4.0 | 12.0 | 0.00 | 0.00 | 0.00 | 68 | 1021.7 |
| 20260905154505 | 64 | 238 | 5.0 | 16.0 | 0.00 | 0.00 | 0.00 | 66 | 1021.8 |
| 20260905154006 | 64 | 231 | 5.0 | 12.0 | 0.00 | 0.00 | 0.00 | 67 | 1021.9 |
| 20260905153505 | 64 | 231 | 4.0 | 11.0 | 0.00 | 0.00 | 0.00 | 66 | 1021.9 |
| 20260905153006 | 64 | 230 | 4.0 | 11.0 | 0.00 | 0.00 | 0.00 | 66 | 1021.9 |
| 20260905152505 | 64 | 231 | 5.0 | 10.0 | 0.00 | 0.00 | 0.00 | 66 | 1021.8 |
| 20260905152005 | 64 | 240 | 4.0 | 10.0 | 0.00 | 0.00 | 0.00 | 66 | 1021.9 |
| 20260905151505 | 65 | 217 | 4.0 | 9.0 | 0.00 | 0.00 | 0.00 | 65 | 1022.1 |
| 20260905151006 | 65 | 200 | 3.0 | 9.0 | 0.00 | 0.00 | 0.00 | 63 | 1022.1 |
| 20260905150505 | 65 | 211 | 3.0 | 9.0 | 0.00 | 0.00 | 0.00 | 64 | 1022.1 |
| 20260905150006 | 65 | 222 | 4.0 | 10.0 | 0.00 | 0.00 | 0.00 | 62 | 1022.1 |
| 20260905145006 | 65 | 191 | 3.0 | 10.0 | 0.00 | 0.00 | 0.00 | 62 | 1022.2 |
| 20260905144505 | 65 | 210 | 3.0 | 8.0 | 0.00 | 0.00 | 0.00 | 62 | 1022.2 |
| 20260905144005 | 66 | 223 | 4.0 | 9.0 | 0.00 | 0.00 | 0.00 | 62 | 1022.2 |
| 20260905143506 | 66 | 230 | 4.0 | 9.0 | 0.00 | 0.00 | 0.00 | 61 | 1022.1 |
| 20260905143006 | 66 | 239 | 4.0 | 9.0 | 0.00 | 0.00 | 0.00 | 60 | 1022.1 |
| 20260905142505 | 66 | 244 | 4.0 | 12.0 | 0.00 | 0.00 | 0.00 | 61 | 1022.3 |
| 20260905141505 | 66 | 251 | 5.0 | 10.0 | 0.00 | 0.00 | 0.00 | 60 | 1022.3 |
| 20260905140505 | 67 | 237 | 4.0 | 12.0 | 0.00 | 0.00 | 0.00 | 60 | 1022.4 |
| 20260905135505 | 67 | 219 | 3.0 | 8.0 | 0.00 | 0.00 | 0.00 | 59 | 1022.4 |
| 20260905135005 | 68 | 224 | 3.0 | 8.0 | 0.00 | 0.00 | 0.00 | 59 | 1022.5 |
| 20260905134505 | 67 | 245 | 3.0 | 8.0 | 0.00 | 0.00 | 0.00 | 60 | 1022.6 |
| 20260905134005 | 67 | 247 | 3.0 | 8.0 | 0.00 | 0.00 | 0.00 | 60 | 1022.6 |
| 20260905133505 | 67 | 217 | 2.0 | 6.0 | 0.00 | 0.00 | 0.00 | 61 | 1022.7 |
| 20260905133006 | 66 | 191 | 2.0 | 8.0 | 0.00 | 0.00 | 0.00 | 60 | 1022.8 |
| 20260905132504 | 66 | 233 | 3.0 | 12.0 | 0.00 | 0.00 | 0.00 | 59 | 1022.9 |
| 20260905132006 | 66 | 253 | 4.0 | 12.0 | 0.00 | 0.00 | 0.00 | 61 | 1023.0 |
| 20260905131505 | 66 | 252 | 4.0 | 9.0 | 0.00 | 0.00 | 0.00 | 61 | 1022.9 |
| 20260905130505 | 65 | 207 | 3.0 | 8.0 | 0.00 | 0.00 | 0.00 | 62 | 1023.0 |
| 20260905130007 | 65 | 224 | 4.0 | 10.0 | 0.00 | 0.00 | 0.00 | 61 | 1023.0 |
| 20260905125006 | 65 | 251 | 4.0 | 9.0 | 0.00 | 0.00 | 0.00 | 60 | 1023.0 |
| 20260905124505 | 65 | 245 | 3.0 | 9.0 | 0.00 | 0.00 | 0.00 | 62 | 1023.0 |
| 20260905124005 | 64 | 223 | 2.0 | 5.0 | 0.00 | 0.00 | 0.00 | 63 | 1023.0 |
| 20260905123005 | 64 | 221 | 3.0 | 9.0 | 0.00 | 0.00 | 0.00 | 64 | 1023.0 |
| 20260905122505 | 64 | 217 | 3.0 | 9.0 | 0.00 | 0.00 | 0.00 | 62 | 1023.0 |
| 20260905122006 | 64 | 229 | 3.0 | 8.0 | 0.00 | 0.00 | 0.00 | 64 | 1023.0 |
| 20260905121505 | 64 | 232 | 3.0 | 9.0 | 0.00 | 0.00 | 0.00 | 62 | 1023.1 |
| 20260905121005 | 64 | 215 | 2.0 | 9.0 | 0.00 | 0.00 | 0.00 | 62 | 1023.2 |
| 20260905120005 | 64 | 214 | 3.0 | 8.0 | 0.00 | 0.00 | 0.00 | 62 | 1023.1 |
| 20260905115505 | 64 | 239 | 3.0 | 8.0 | 0.00 | 0.00 | 0.00 | 61 | 1023.1 |
| 20260905115005 | 64 | 263 | 3.0 | 7.0 | 0.00 | 0.00 | 0.00 | 64 | 1023.2 |
| 20260905114505 | 64 | 239 | 2.0 | 7.0 | 0.00 | 0.00 | 0.00 | 63 | 1023.2 |
| 20260905114006 | 64 | 212 | 2.0 | 6.0 | 0.00 | 0.00 | 0.00 | 62 | 1023.2 |
| 20260905113505 | 64 | 227 | 3.0 | 9.0 | 0.00 | 0.00 | 0.00 | 62 | 1023.2 |
| 20260905112505 | 64 | 246 | 3.0 | 9.0 | 0.00 | 0.00 | 0.00 | 62 | 1023.4 |
| 20260905112005 | 63 | 240 | 3.0 | 9.0 | 0.00 | 0.00 | 0.00 | 67 | 1023.3 |
| 20260905111006 | 62 | 249 | 3.0 | 9.0 | 0.00 | 0.00 | 0.00 | 65 | 1023.2 |
| 20260905110504 | 62 | 243 | 3.0 | 9.0 | 0.00 | 0.00 | 0.00 | 65 | 1023.4 |
| 20260905110005 | 62 | 249 | 3.0 | 8.0 | 0.00 | 0.00 | 0.00 | 65 | 1023.2 |
| 20260905105505 | 62 | 253 | 3.0 | 8.0 | 0.00 | 0.00 | 0.00 | 67 | 1023.4 |
| 20260905105006 | 62 | 228 | 2.0 | 5.0 | 0.00 | 0.00 | 0.00 | 74 | 1023.4 |
| 20260905104504 | 61 | 209 | 1.0 | 5.0 | 0.00 | 0.00 | 0.00 | 72 | 1023.3 |
| 20260905104005 | 60 | 221 | 1.0 | 4.0 | 0.00 | 0.00 | 0.00 | 75 | 1023.3 |
| 20260905103504 | 60 | 249 | 2.0 | 4.0 | 0.00 | 0.00 | 0.00 | 76 | 1023.3 |
| 20260905103006 | 60 | 262 | 2.0 | 4.0 | 0.00 | 0.00 | 0.00 | 76 | 1023.2 |
| 20260905102504 | 59 | 265 | 1.0 | 3.0 | 0.00 | 0.00 | 0.00 | 78 | 1023.3 |
| 20260905102008 | 59 | 266 | 1.0 | 3.0 | 0.00 | 0.00 | 0.00 | 77 | 1023.2 |
| 20260905101505 | 59 | 264 | 1.0 | 4.0 | 0.00 | 0.00 | 0.00 | 78 | 1023.3 |
| 20260905101005 | 59 | 262 | 1.0 | 4.0 | 0.00 | 0.00 | 0.00 | 79 | 1023.3 |
| 20260905100504 | 59 | 263 | 2.0 | 4.0 | 0.00 | 0.00 | 0.00 | 79 | 1023.3 |
| 20260905100006 | 59 | 259 | 2.0 | 4.0 | 0.00 | 0.00 | 0.00 | 78 | 1023.3 |
| 20260905095505 | 59 | 257 | 2.0 | 8.0 | 0.00 | 0.00 | 0.00 | 77 | 1023.3 |
| 20260905095006 | 59 | 269 | 3.0 | 8.0 | 0.00 | 0.00 | 0.00 | 77 | 1023.3 |
| 20260905094504 | 59 | 270 | 3.0 | 8.0 | 0.00 | 0.00 | 0.00 | 78 | 1023.2 |
| 20260905094006 | 59 | 255 | 2.0 | 7.0 | 0.00 | 0.00 | 0.00 | 78 | 1023.1 |
| 20260905093005 | 58 | 254 | 2.0 | 8.0 | 0.00 | 0.00 | 0.00 | 79 | 1023.1 |
| 20260905092505 | 58 | 239 | 2.0 | 8.0 | 0.00 | 0.00 | 0.00 | 78 | 1023.1 |
| 20260905092005 | 58 | 229 | 2.0 | 5.0 | 0.00 | 0.00 | 0.00 | 78 | 1023.3 |
| 20260905091504 | 58 | 242 | 2.0 | 6.0 | 0.00 | 0.00 | 0.00 | 79 | 1023.2 |
| 20260905091006 | 58 | 253 | 2.0 | 6.0 | 0.00 | 0.00 | 0.00 | 80 | 1023.1 |
| 20260905090504 | 58 | 248 | 2.0 | 4.0 | 0.00 | 0.00 | 0.00 | 80 | 1023.1 |
| 20260905090009 | 58 | 242 | 2.0 | 7.0 | 0.00 | 0.00 | 0.00 | 79 | 1023.0 |
| 20260905085505 | 58 | 247 | 3.0 | 7.0 | 0.00 | 0.00 | 0.00 | 80 | 1023.2 |
| 20260905085005 | 58 | 255 | 3.0 | 7.0 | 0.00 | 0.00 | 0.00 | 80 | 1023.1 |
| 20260905084005 | 58 | 260 | 2.0 | 7.0 | 0.00 | 0.00 | 0.00 | 80 | 1023.0 |
| 20260905083504 | 58 | 269 | 2.0 | 7.0 | 0.00 | 0.00 | 0.00 | 81 | 1023.0 |
| 20260905083005 | 58 | 271 | 3.0 | 6.0 | 0.00 | 0.00 | 0.00 | 80 | 1022.9 |
| 20260905082504 | 57 | 264 | 2.0 | 6.0 | 0.00 | 0.00 | 0.00 | 81 | 1022.8 |
| 20260905082005 | 57 | 262 | 2.0 | 7.0 | 0.00 | 0.00 | 0.00 | 84 | 1022.8 |
| 20260905081505 | 56 | 266 | 3.0 | 7.0 | 0.00 | 0.00 | 0.00 | 84 | 1022.8 |
| 20260905080505 | 56 | 269 | 3.0 | 7.0 | 0.00 | 0.00 | 0.00 | 86 | 1022.7 |
| 20260905080005 | 55 | 266 | 3.0 | 9.0 | 0.00 | 0.00 | 0.00 | 86 | 1022.6 |
| 20260905075505 | 55 | 263 | 4.0 | 9.0 | 0.00 | 0.00 | 0.00 | 86 | 1022.7 |
| 20260905075005 | 55 | 263 | 4.0 | 7.0 | 0.00 | 0.00 | 0.00 | 85 | 1022.5 |
| 20260905074505 | 55 | 267 | 3.0 | 7.0 | 0.00 | 0.00 | 0.00 | 85 | 1022.6 |
| 20260905073505 | 55 | 274 | 2.0 | 4.0 | 0.00 | 0.00 | 0.00 | 87 | 1022.7 |
| 20260905073005 | 55 | 267 | 2.0 | 6.0 | 0.00 | 0.00 | 0.00 | 87 | 1022.6 |
| 20260905072504 | 54 | 257 | 2.0 | 6.0 | 0.00 | 0.00 | 0.00 | 87 | 1022.6 |
| 20260905072006 | 54 | 252 | 2.0 | 6.0 | 0.00 | 0.00 | 0.00 | 87 | 1022.6 |
| 20260905071504 | 54 | 245 | 2.0 | 5.0 | 0.00 | 0.00 | 0.00 | 87 | 1022.5 |
| 20260905071006 | 54 | 242 | 2.0 | 6.0 | 0.00 | 0.00 | 0.00 | 88 | 1022.4 |
| 20260905070505 | 54 | 248 | 2.0 | 6.0 | 0.00 | 0.00 | 0.00 | 88 | 1022.4 |
| 20260905070005 | 54 | 248 | 2.0 | 8.0 | 0.00 | 0.00 | 0.00 | 88 | 1022.4 |
| 20260905065504 | 53 | 262 | 2.0 | 8.0 | 0.00 | 0.00 | 0.00 | 89 | 1022.4 |
| 20260905065005 | 53 | 252 | 2.0 | 8.0 | 0.00 | 0.00 | 0.00 | 89 | 1022.4 |
| 20260905064505 | 53 | 224 | 2.0 | 8.0 | 0.00 | 0.00 | 0.00 | 89 | 1022.3 |
| 20260905064006 | 53 | 195 | 1.0 | 3.0 | 0.00 | 0.00 | 0.00 | 90 | 1022.2 |
| 20260905063504 | 53 | 179 | 1.0 | 2.0 | 0.00 | 0.00 | 0.00 | 90 | 1022.2 |
| 20260905063005 | 52 | 178 | 0.0 | 2.0 | 0.00 | 0.00 | 0.00 | 90 | 1022.1 |
| 20260905062005 | 52 | 178 | 0.0 | 2.0 | 0.00 | 0.00 | 0.00 | 90 | 1022.0 |
| 20260905061505 | 52 | 178 | 0.0 | 2.0 | 0.00 | 0.00 | 0.00 | 90 | 1022.0 |
| 20260905061005 | 52 | 178 | 0.0 | 2.0 | 0.00 | 0.00 | 0.00 | 90 | 1022.0 |
| 20260905060006 | 52 | 178 | 0.0 | 2.0 | 0.00 | 0.00 | 0.00 | 90 | 1021.9 |
| 20260905055504 | 52 | 178 | 0.0 | 2.0 | 0.00 | 0.00 | 0.00 | 90 | 1021.9 |
| 20260905055005 | 52 | 187 | 1.0 | 3.0 | 0.00 | 0.00 | 0.00 | 90 | 1021.9 |
| 20260905054504 | 52 | 189 | 1.0 | 3.0 | 0.00 | 0.00 | 0.00 | 90 | 1021.9 |
| 20260905054005 | 51 | 206 | 0.0 | 2.0 | 0.00 | 0.00 | 0.00 | 90 | 1021.7 |
| 20260905053504 | 51 | 218 | 0.0 | 2.0 | 0.00 | 0.00 | 0.00 | 90 | 1021.8 |
| 20260905053005 | 51 | 220 | 0.0 | 1.0 | 0.00 | 0.00 | 0.00 | 90 | 1021.8 |
| 20260905052504 | 51 | 232 | 0.0 | 2.0 | 0.00 | 0.00 | 0.00 | 90 | 1021.6 |
| 20260905052006 | 51 | 238 | 0.0 | 2.0 | 0.00 | 0.00 | 0.00 | 90 | 1021.6 |
| 20260905051505 | 51 | 249 | 0.0 | 1.0 | 0.00 | 0.00 | 0.00 | 90 | 1021.6 |
| 20260905051005 | 51 | 250 | 0.0 | 2.0 | 0.00 | 0.00 | 0.00 | 90 | 1021.6 |
| 20260905050504 | 51 | 250 | 1.0 | 2.0 | 0.00 | 0.00 | 0.00 | 90 | 1021.5 |
| 20260905050005 | 51 | 251 | 1.0 | 2.0 | 0.00 | 0.00 | 0.00 | 90 | 1021.4 |
| 20260905045505 | 51 | 256 | 1.0 | 3.0 | 0.00 | 0.00 | 0.00 | 90 | 1021.2 |
| 20260905044504 | 51 | 272 | 0.0 | 2.0 | 0.00 | 0.00 | 0.00 | 90 | 1021.2 |
| 20260905043504 | 51 | 274 | 1.0 | 2.0 | 0.00 | 0.00 | 0.00 | 89 | 1021.1 |
| 20260905043005 | 51 | 274 | 0.0 | 2.0 | 0.00 | 0.00 | 0.00 | 88 | 1021.2 |